Location: Taaricht
(32.5378°N, 5.4251°W)
Time: 19:50:22
(UTC+00:00)

Cosmos 1610 Rocket - Pass Details

Date: 09 April 2020
Orbit: 952 x 1003 km, 82.9° (Epoch: 27 May)

Event Time Altitude Azimuth Distance (km) Brightness Sun altitude
Rises 20:03:01 0° 356° (N) 3,648 7.8 -16.1°
Reaches altitude 10° 20:05:33 10° 358° (N) 2,694 7.1 -16.6°
Maximum altitude 20:11:41 74° 84° (E) 990 4.4 -17.8°
Enters shadow 20:17:39 11° 169° (S) 2,622 6.4 -19.0°
